| time (UTC) | temp F | wind direction | speed MPH | gust MPH | rain 1hr in | rain 24hr in | rain mn in | humidity % | barometer mb |
| 20260905093539 | 90 | 346 | 4.0 | 7.0 | 0.00 | 0.00 | 0.00 | 39 | 1019.3 |
| 20260905092537 | 90 | 14 | 5.0 | 11.0 | 0.00 | 0.00 | 0.00 | 38 | 1019.4 |
| 20260905091534 | 90 | 41 | 4.0 | 9.0 | 0.00 | 0.00 | 0.00 | 38 | 1019.2 |
| 20260905090531 | 89 | 54 | 6.0 | 11.0 | 0.00 | 0.00 | 0.00 | 39 | 1019.1 |
| 20260905085529 | 90 | 57 | 5.0 | 9.0 | 0.00 | 0.00 | 0.00 | 38 | 1019.0 |
| 20260905084526 | 89 | 21 | 7.0 | 11.0 | 0.00 | 0.00 | 0.00 | 38 | 1018.9 |
| 20260905083524 | 89 | 13 | 6.0 | 11.0 | 0.00 | 0.00 | 0.00 | 38 | 1019.0 |
| 20260905082521 | 89 | 357 | 6.0 | 11.0 | 0.00 | 0.00 | 0.00 | 37 | 1018.7 |
| 20260905081518 | 89 | 350 | 7.0 | 11.0 | 0.00 | 0.00 | 0.00 | 37 | 1018.5 |
| 20260905080516 | 89 | 325 | 5.0 | 9.0 | 0.00 | 0.00 | 0.00 | 37 | 1018.4 |
| 20260905075613 | 90 | 335 | 1.0 | 4.0 | 0.00 | 0.00 | 0.00 | 42 | 1018.4 |
| 20260905074611 | 89 | 0.0 | 2.0 | 0.00 | 0.00 | 0.00 | 45 | 1018.3 | |
| 20260905073608 | 87 | 0.0 | 2.0 | 0.00 | 0.00 | 0.00 | 46 | 1018.2 | |
| 20260905072606 | 86 | 90 | 0.0 | 2.0 | 0.00 | 0.00 | 0.00 | 47 | 1018.2 |
| 20260905071603 | 88 | 0.0 | 2.0 | 0.00 | 0.00 | 0.00 | 43 | 1018.1 | |
| 20260905070601 | 86 | 293 | 0.0 | 2.0 | 0.00 | 0.00 | 0.00 | 46 | 1018.0 |
| 20260905065558 | 84 | 296 | 3.0 | 4.0 | 0.00 | 0.00 | 0.00 | 47 | 1017.9 |
| 20260905064555 | 84 | 301 | 2.0 | 4.0 | 0.00 | 0.00 | 0.00 | 47 | 1017.8 |
| 20260905063553 | 83 | 277 | 0.0 | 2.0 | 0.00 | 0.00 | 0.00 | 48 | 1017.9 |
| 20260905062550 | 82 | 284 | 2.0 | 4.0 | 0.00 | 0.00 | 0.00 | 50 | 1017.6 |
| 20260905061547 | 80 | 0.0 | 2.0 | 0.00 | 0.00 | 0.00 | 52 | 1017.7 | |
| 20260905060545 | 80 | 270 | 0.0 | 2.0 | 0.00 | 0.00 | 0.00 | 51 | 1017.5 |
| 20260905055542 | 78 | 0.0 | 0.0 | 0.00 | 0.00 | 0.00 | 54 | 1017.5 | |
| 20260905054540 | 80 | 270 | 0.0 | 2.0 | 0.00 | 0.00 | 0.00 | 51 | 1017.2 |
| 20260905053537 | 80 | 263 | 2.0 | 2.0 | 0.00 | 0.00 | 0.00 | 50 | 1017.3 |
| 20260905052534 | 80 | 240 | 2.0 | 2.0 | 0.00 | 0.00 | 0.00 | 50 | 1017.2 |
| 20260905051532 | 79 | 259 | 2.0 | 2.0 | 0.00 | 0.00 | 0.00 | 52 | 1017.0 |
| 20260905050529 | 78 | 279 | 2.0 | 2.0 | 0.00 | 0.00 | 0.00 | 54 | 1017.1 |
| 20260905045527 | 77 | 225 | 0.0 | 2.0 | 0.00 | 0.00 | 0.00 | 56 | 1017.1 |
| 20260905044524 | 77 | 267 | 1.0 | 2.0 | 0.00 | 0.00 | 0.00 | 55 | 1017.0 |
| 20260905043521 | 77 | 251 | 3.0 | 4.0 | 0.00 | 0.00 | 0.00 | 56 | 1017.0 |
| 20260905042519 | 77 | 248 | 2.0 | 2.0 | 0.00 | 0.00 | 0.00 | 56 | 1016.9 |
| 20260905041516 | 78 | 264 | 1.0 | 2.0 | 0.00 | 0.00 | 0.00 | 55 | 1016.9 |
| 20260905040614 | 77 | 266 | 1.0 | 2.0 | 0.00 | 0.00 | 0.00 | 55 | 1016.8 |
| 20260905035611 | 78 | 0.0 | 0.0 | 0.00 | 0.00 | 0.00 | 55 | 1016.9 | |
| 20260905034609 | 77 | 248 | 2.0 | 2.0 | 0.00 | 0.00 | 0.00 | 55 | 1017.0 |
| 20260905033606 | 78 | 248 | 0.0 | 2.0 | 0.00 | 0.00 | 0.00 | 55 | 1016.9 |
| 20260905032604 | 78 | 229 | 2.0 | 4.0 | 0.00 | 0.00 | 0.00 | 55 | 1016.8 |
| 20260905031601 | 77 | 243 | 1.0 | 2.0 | 0.00 | 0.00 | 0.00 | 56 | 1016.8 |
| 20260905030558 | 77 | 0.0 | 0.0 | 0.00 | 0.00 | 0.00 | 57 | 1016.6 | |
| 20260905025556 | 77 | 293 | 0.0 | 2.0 | 0.00 | 0.00 | 0.00 | 57 | 1016.7 |
| 20260905024553 | 78 | 23 | 0.0 | 2.0 | 0.00 | 0.00 | 0.00 | 55 | 1016.8 |
| 20260905023551 | 79 | 0.0 | 2.0 | 0.00 | 0.00 | 0.00 | 54 | 1016.7 | |
| 20260905022548 | 78 | 293 | 1.0 | 2.0 | 0.00 | 0.00 | 0.00 | 56 | 1016.8 |
| 20260905021545 | 77 | 0.0 | 0.0 | 0.00 | 0.00 | 0.00 | 57 | 1016.8 | |
| 20260905020543 | 78 | 0.0 | 0.0 | 0.00 | 0.00 | 0.00 | 56 | 1016.8 | |
| 20260905015540 | 78 | 0.0 | 0.0 | 0.00 | 0.00 | 0.00 | 55 | 1016.6 | |
| 20260905014538 | 78 | 0.0 | 0.0 | 0.00 | 0.00 | 0.00 | 54 | 1016.7 | |
| 20260905013535 | 77 | 0.0 | 0.0 | 0.00 | 0.00 | 0.00 | 57 | 1016.8 | |
| 20260905012533 | 77 | 0.0 | 0.0 | 0.00 | 0.00 | 0.00 | 56 | 1016.9 | |
| 20260905011530 | 78 | 244 | 2.0 | 2.0 | 0.00 | 0.00 | 0.00 | 55 | 1016.8 |
| 20260905010527 | 78 | 242 | 1.0 | 4.0 | 0.00 | 0.00 | 0.00 | 55 | 1016.9 |
| 20260905005525 | 79 | 221 | 0.0 | 4.0 | 0.00 | 0.00 | 0.00 | 54 | 1016.9 |
| 20260905004522 | 79 | 224 | 2.0 | 4.0 | 0.00 | 0.00 | 0.00 | 53 | 1016.9 |
| 20260905003519 | 79 | 215 | 4.0 | 7.0 | 0.00 | 0.00 | 0.00 | 54 | 1017.0 |
| 20260905002517 | 78 | 230 | 4.0 | 8.0 | 0.00 | 0.00 | 0.00 | 56 | 1017.1 |
| 20260905001614 | 79 | 222 | 3.0 | 6.0 | 0.00 | 0.00 | 0.00 | 56 | 1017.1 |
| 20260905000612 | 78 | 180 | 2.0 | 2.0 | 0.00 | 0.00 | 0.00 | 57 | 1017.2 |
| 20260904235609 | 78 | 230 | 5.0 | 8.0 | 0.00 | 0.00 | 0.00 | 58 | 1017.2 |
| 20260904234607 | 77 | 218 | 1.0 | 4.0 | 0.00 | 0.00 | 0.00 | 62 | 1017.3 |
| 20260904233604 | 78 | 235 | 2.0 | 4.0 | 0.00 | 0.00 | 0.00 | 61 | 1017.4 |
| 20260904232601 | 78 | 180 | 2.0 | 4.0 | 0.00 | 0.00 | 0.00 | 61 | 1017.4 |
| 20260904231559 | 78 | 176 | 2.0 | 4.0 | 0.00 | 0.00 | 0.00 | 61 | 1017.4 |
| 20260904230556 | 78 | 230 | 3.0 | 6.0 | 0.00 | 0.00 | 0.00 | 63 | 1017.5 |
| 20260904225554 | 78 | 221 | 2.0 | 4.0 | 0.00 | 0.00 | 0.00 | 64 | 1017.5 |
| 20260904224551 | 78 | 223 | 2.0 | 6.0 | 0.00 | 0.00 | 0.00 | 62 | 1017.5 |
| 20260904223548 | 78 | 210 | 3.0 | 6.0 | 0.00 | 0.00 | 0.00 | 64 | 1017.7 |
| 20260904222546 | 77 | 218 | 5.0 | 7.0 | 0.00 | 0.00 | 0.00 | 67 | 1017.4 |
| 20260904221543 | 77 | 225 | 5.0 | 8.0 | 0.00 | 0.00 | 0.00 | 68 | 1017.5 |
| 20260904220541 | 78 | 194 | 4.0 | 7.0 | 0.00 | 0.00 | 0.00 | 69 | 1017.6 |
| 20260904215538 | 78 | 178 | 2.0 | 4.0 | 0.00 | 0.00 | 0.00 | 70 | 1017.6 |
| 20260904214535 | 78 | 214 | 3.0 | 7.0 | 0.00 | 0.00 | 0.00 | 72 | 1017.5 |
| 20260904213533 | 78 | 183 | 2.0 | 4.0 | 0.00 | 0.00 | 0.00 | 74 | 1017.5 |
| 20260904212530 | 79 | 175 | 2.0 | 4.0 | 0.00 | 0.00 | 0.00 | 73 | 1017.6 |
| 20260904211528 | 80 | 234 | 3.0 | 4.0 | 0.00 | 0.00 | 0.00 | 71 | 1017.7 |
| 20260904210525 | 80 | 244 | 3.0 | 4.0 | 0.00 | 0.00 | 0.00 | 72 | 1017.7 |
| 20260904205522 | 80 | 228 | 3.0 | 4.0 | 0.00 | 0.00 | 0.00 | 73 | 1017.8 |
| 20260904204520 | 80 | 233 | 4.0 | 4.0 | 0.00 | 0.00 | 0.00 | 74 | 1017.8 |
| 20260904203517 | 80 | 221 | 3.0 | 4.0 | 0.00 | 0.00 | 0.00 | 75 | 1017.7 |
| 20260904202515 | 80 | 237 | 3.0 | 4.0 | 0.00 | 0.00 | 0.00 | 75 | 1017.8 |
| 20260904201612 | 80 | 253 | 1.0 | 2.0 | 0.00 | 0.00 | 0.00 | 74 | 1017.8 |
| 20260904200610 | 80 | 248 | 2.0 | 2.0 | 0.00 | 0.00 | 0.00 | 74 | 1017.7 |
| 20260904195607 | 81 | 239 | 1.0 | 4.0 | 0.00 | 0.00 | 0.00 | 74 | 1017.8 |
| 20260904194605 | 81 | 0.0 | 2.0 | 0.00 | 0.00 | 0.00 | 75 | 1017.6 | |
| 20260904193602 | 81 | 315 | 0.0 | 2.0 | 0.00 | 0.00 | 0.00 | 75 | 1017.6 |
| 20260904192559 | 81 | 322 | 1.0 | 2.0 | 0.00 | 0.00 | 0.00 | 76 | 1017.6 |
| 20260904191556 | 80 | 338 | 0.0 | 2.0 | 0.00 | 0.00 | 0.00 | 78 | 1017.5 |
| 20260904190554 | 80 | 310 | 1.0 | 2.0 | 0.00 | 0.00 | 0.00 | 79 | 1017.5 |
| 20260904185551 | 81 | 306 | 1.0 | 2.0 | 0.00 | 0.00 | 0.00 | 79 | 1017.3 |
| 20260904184549 | 81 | 313 | 3.0 | 4.0 | 0.00 | 0.00 | 0.00 | 78 | 1017.0 |
| 20260904183546 | 81 | 300 | 1.0 | 2.0 | 0.00 | 0.00 | 0.00 | 78 | 1017.0 |
| 20260904182544 | 81 | 62 | 1.0 | 2.0 | 0.00 | 0.00 | 0.00 | 77 | 1016.9 |
| 20260904181542 | 82 | 20 | 2.0 | 4.0 | 0.00 | 0.00 | 0.00 | 76 | 1016.8 |
| 20260904180538 | 82 | 348 | 2.0 | 6.0 | 0.00 | 0.00 | 0.00 | 74 | 1016.7 |
| 20260904175536 | 83 | 10 | 3.0 | 6.0 | 0.00 | 0.00 | 0.00 | 73 | 1016.7 |
| 20260904174533 | 84 | 118 | 2.0 | 4.0 | 0.00 | 0.00 | 0.00 | 70 | 1016.4 |
| 20260904173531 | 84 | 29 | 2.0 | 6.0 | 0.00 | 0.00 | 0.00 | 68 | 1016.3 |
| 20260904172528 | 84 | 43 | 3.0 | 7.0 | 0.00 | 0.00 | 0.00 | 68 | 1016.3 |
| 20260904171525 | 84 | 30 | 5.0 | 11.0 | 0.00 | 0.00 | 0.00 | 69 | 1016.3 |
| 20260904170523 | 85 | 17 | 6.0 | 11.0 | 0.00 | 0.00 | 0.00 | 68 | 1016.1 |
| 20260904165520 | 85 | 13 | 5.0 | 11.0 | 0.00 | 0.00 | 0.00 | 68 | 1016.0 |
| 20260904164517 | 86 | 358 | 6.0 | 11.0 | 0.00 | 0.00 | 0.00 | 68 | 1016.0 |
| 20260904163515 | 86 | 6 | 7.0 | 14.0 | 0.00 | 0.00 | 0.00 | 69 | 1015.9 |
| 20260904162614 | 86 | 13 | 6.0 | 11.0 | 0.00 | 0.00 | 0.00 | 67 | 1015.9 |
| 20260904161610 | 88 | 50 | 5.0 | 9.0 | 0.00 | 0.00 | 0.00 | 64 | 1015.9 |
| 20260904160607 | 88 | 10 | 5.0 | 11.0 | 0.00 | 0.00 | 0.00 | 64 | 1016.0 |
| 20260904155605 | 88 | 53 | 5.0 | 11.0 | 0.00 | 0.00 | 0.00 | 63 | 1015.8 |
| 20260904154602 | 88 | 17 | 5.0 | 9.0 | 0.00 | 0.00 | 0.00 | 65 | 1015.9 |
| 20260904153559 | 88 | 17 | 6.0 | 11.0 | 0.00 | 0.00 | 0.00 | 65 | 1015.8 |
| 20260904152557 | 88 | 2 | 6.0 | 11.0 | 0.00 | 0.00 | 0.00 | 65 | 1015.9 |
| 20260904151554 | 88 | 324 | 8.0 | 14.0 | 0.00 | 0.00 | 0.00 | 65 | 1016.0 |
| 20260904150552 | 89 | 32 | 7.0 | 11.0 | 0.00 | 0.00 | 0.00 | 62 | 1015.8 |
| 20260904145549 | 89 | 349 | 9.0 | 15.0 | 0.00 | 0.00 | 0.00 | 60 | 1015.8 |
| 20260904144547 | 91 | 28 | 9.0 | 16.0 | 0.00 | 0.00 | 0.00 | 56 | 1015.5 |
| 20260904143544 | 93 | 18 | 9.0 | 15.0 | 0.00 | 0.00 | 0.00 | 50 | 1015.7 |
| 20260904142541 | 94 | 8 | 6.0 | 13.0 | 0.00 | 0.00 | 0.00 | 48 | 1015.4 |
| 20260904141539 | 96 | 81 | 4.0 | 8.0 | 0.00 | 0.00 | 0.00 | 44 | 1015.7 |
| 20260904140536 | 96 | 143 | 3.0 | 9.0 | 0.00 | 0.00 | 0.00 | 44 | 1015.6 |
| 20260904135533 | 96 | 130 | 3.0 | 9.0 | 0.00 | 0.00 | 0.00 | 44 | 1015.5 |
| 20260904134531 | 97 | 75 | 3.0 | 7.0 | 0.00 | 0.00 | 0.00 | 43 | 1015.7 |
| 20260904133528 | 96 | 142 | 4.0 | 11.0 | 0.00 | 0.00 | 0.00 | 46 | 1015.6 |
| 20260904132526 | 96 | 138 | 4.0 | 11.0 | 0.00 | 0.00 | 0.00 | 46 | 1015.6 |
| 20260904131523 | 97 | 128 | 3.0 | 9.0 | 0.00 | 0.00 | 0.00 | 46 | 1015.7 |
| 20260904130521 | 97 | 137 | 3.0 | 6.0 | 0.00 | 0.00 | 0.00 | 44 | 1015.7 |
| 20260904125518 | 97 | 167 | 3.0 | 7.0 | 0.00 | 0.00 | 0.00 | 42 | 1015.8 |
| 20260904124515 | 97 | 114 | 3.0 | 8.0 | 0.00 | 0.00 | 0.00 | 42 | 1015.9 |
| 20260904123613 | 97 | 136 | 2.0 | 7.0 | 0.00 | 0.00 | 0.00 | 41 | 1015.8 |
| 20260904122610 | 97 | 166 | 2.0 | 6.0 | 0.00 | 0.00 | 0.00 | 40 | 1016.0 |
| 20260904121608 | 97 | 117 | 4.0 | 8.0 | 0.00 | 0.00 | 0.00 | 39 | 1015.9 |
| 20260904120605 | 96 | 59 | 3.0 | 8.0 | 0.00 | 0.00 | 0.00 | 41 | 1016.1 |
| 20260904115603 | 95 | 121 | 4.0 | 11.0 | 0.00 | 0.00 | 0.00 | 41 | 1016.2 |
| 20260904114600 | 95 | 111 | 4.0 | 9.0 | 0.00 | 0.00 | 0.00 | 40 | 1016.4 |
| 20260904113557 | 95 | 135 | 4.0 | 7.0 | 0.00 | 0.00 | 0.00 | 40 | 1016.5 |
| 20260904112555 | 94 | 102 | 3.0 | 7.0 | 0.00 | 0.00 | 0.00 | 43 | 1016.6 |
| 20260904111552 | 94 | 110 | 1.0 | 7.0 | 0.00 | 0.00 | 0.00 | 42 | 1016.6 |
| 20260904110550 | 94 | 99 | 2.0 | 6.0 | 0.00 | 0.00 | 0.00 | 44 | 1016.7 |
| 20260904105547 | 93 | 87 | 2.0 | 6.0 | 0.00 | 0.00 | 0.00 | 47 | 1016.8 |
| 20260904104544 | 92 | 345 | 1.0 | 4.0 | 0.00 | 0.00 | 0.00 | 49 | 1016.9 |
| 20260904103542 | 92 | 113 | 1.0 | 4.0 | 0.00 | 0.00 | 0.00 | 49 | 1017.0 |
| 20260904102539 | 92 | 98 | 2.0 | 4.0 | 0.00 | 0.00 | 0.00 | 50 | 1017.1 |
| 20260904101537 | 90 | 146 | 2.0 | 4.0 | 0.00 | 0.00 | 0.00 | 53 | 1017.2 |
| 20260904100534 | 90 | 135 | 1.0 | 4.0 | 0.00 | 0.00 | 0.00 | 53 | 1017.3 |
| 20260904095531 | 89 | 117 | 1.0 | 4.0 | 0.00 | 0.00 | 0.00 | 54 | 1017.2 |
| 20260904094529 | 88 | 126 | 2.0 | 4.0 | 0.00 | 0.00 | 0.00 | 55 | 1017.3 |